Location: Homewood
(41.1836°S, 175.9581°E)
Time: 06:25:25
(UTC+00:00)

NOAA 12 - Visible Passes

Search period start: 16 July 2024 00:00
Search period end: 26 July 2024 00:00
Orbit: 795 x 813 km, 98.6° (Epoch: 15 July)

Date Brightness Start Highest point End Pass type
(mag) Time Alt. Az. Time Alt. Az. Time Alt. Az.
16 Jul 4.2 05:40:19 10° SSE 05:45:39 85° WSW 05:50:56 10° NNW visible
16 Jul 6.9 07:22:41 10° SW 07:24:34 12° WSW 07:26:26 10° WSW visible
16 Jul 6.2 17:00:11 10° N 17:00:59 15° N 17:00:59 15° N visible
17 Jul 6.5 06:55:45 10° SSW 06:59:28 20° WSW 07:03:09 10° WNW visible
17 Jul 6.4 16:34:35 10° NNE 16:35:13 14° NNE 16:35:13 14° NNE visible
18 Jul 5.8 06:29:36 10° S 06:34:15 32° WSW 06:38:52 10° NW visible
18 Jul 6.8 16:09:23 10° NE 16:09:27 10° NE 16:09:27 10° NE visible
19 Jul 4.9 06:03:47 10° S 06:08:57 53° WSW 06:14:03 10° NNW visible
19 Jul 6.2 17:24:05 10° NNW 17:24:43 13° NNW 17:24:43 13° NNW visible
20 Jul 4.2 05:38:12 10° SSE 05:43:32 89° WSW 05:48:50 10° NNW visible
20 Jul 6.9 07:20:23 10° SW 07:22:29 12° WSW 07:24:36 10° W visible
20 Jul 6.2 16:58:03 10° N 16:58:57 15° N 16:58:57 15° N visible
21 Jul 6.5 06:53:34 10° SSW 06:57:23 20° WSW 07:01:10 10° WNW visible
21 Jul 6.4 16:32:29 10° NNE 16:33:11 14° NNE 16:33:11 14° NNE visible
22 Jul 5.8 06:27:27 10° S 06:32:09 33° WSW 06:36:49 10° NW visible
22 Jul 6.8 16:07:19 10° NE 16:07:26 11° NE 16:07:26 11° NE visible
23 Jul 4.9 06:01:39 10° S 06:06:50 55° WSW 06:11:59 10° NNW visible
23 Jul 6.1 17:21:54 10° NNW 17:22:43 14° NNW 17:22:43 14° NNW visible
24 Jul 4.2 05:36:05 10° SSE 05:41:25 88° E 05:46:44 10° NNW visible
24 Jul 6.9 07:18:05 10° SSW 07:20:24 13° WSW 07:22:43 10° W visible
24 Jul 6.1 16:55:56 10° N 16:56:58 16° N 16:56:58 16° N visible
25 Jul 6.5 06:51:23 10° SSW 06:55:16 21° WSW 06:59:11 10° WNW visible
25 Jul 6.3 16:30:23 10° NNE 16:31:13 15° NNE 16:31:13 15° NNE visible
